TimeEDT,TemperatureF,Dew PointF,Humidity,Sea Level PressureIn,VisibilityMPH,Wind Direction,Wind SpeedMPH,Gust SpeedMPH,PrecipitationIn,Events,Conditions,WindDirDegrees,DateUTC
12:54 AM,73.9,63.0,68,30.04,10.0,South,6.9,-,N/A,,Overcast,180,2013-08-01 04:54:00
1:54 AM,73.0,63.0,71,30.02,10.0,South,6.9,-,N/A,,Overcast,190,2013-08-01 05:54:00
2:54 AM,72.0,62.1,71,30.00,10.0,South,5.8,-,N/A,,Overcast,170,2013-08-01 06:54:00
3:54 AM,72.0,63.0,73,29.98,10.0,South,8.1,-,N/A,,Overcast,170,2013-08-01 07:54:00
4:07 AM,71.6,62.6,73,29.98,10.0,South,5.8,-,N/A,,Overcast,170,2013-08-01 08:07:00
4:32 AM,73.4,62.6,69,29.97,10.0,South,9.2,-,N/A,,Overcast,170,2013-08-01 08:32:00
4:54 AM,73.0,63.0,71,29.97,10.0,South,8.1,-,N/A,,Overcast,190,2013-08-01 08:54:00
5:54 AM,71.1,64.9,81,29.97,10.0,South,8.1,-,0.00,Rain,Light Rain,180,2013-08-01 09:54:00
6:00 AM,71.6,64.4,78,29.97,7.0,South,8.1,-,0.00,Rain,Light Rain,180,2013-08-01 10:00:00
6:33 AM,71.6,66.2,83,29.97,6.0,South,9.2,-,0.01,Rain,Light Rain,180,2013-08-01 10:33:00
6:54 AM,70.0,66.0,87,29.96,4.0,South,6.9,-,0.03,Rain,Light Rain,180,2013-08-01 10:54:00
7:27 AM,69.8,66.2,88,29.96,3.0,SSW,5.8,-,0.02,Rain,Light Rain,200,2013-08-01 11:27:00
7:32 AM,69.8,66.2,88,29.96,2.0,SSW,5.8,-,0.03,Rain,Rain,200,2013-08-01 11:32:00
7:41 AM,69.8,66.2,88,29.96,1.8,SSW,5.8,-,0.08,Rain,Rain,200,2013-08-01 11:41:00
7:50 AM,69.8,66.2,88,29.96,3.0,SSE,4.6,-,0.11,Rain,Rain,150,2013-08-01 11:50:00
7:54 AM,70.0,66.9,90,29.96,3.0,SSE,4.6,-,0.12,Rain,Rain,160,2013-08-01 11:54:00
8:03 AM,69.8,66.2,88,29.96,3.0,South,4.6,-,0.00,Rain,Light Rain,170,2013-08-01 12:03:00
8:21 AM,69.8,66.2,88,29.96,2.0,South,5.8,-,0.00,Rain,Rain,180,2013-08-01 12:21:00
8:42 AM,69.8,66.2,88,29.96,4.0,SSE,4.6,-,0.05,Rain,Light Rain,160,2013-08-01 12:42:00
8:54 AM,70.0,66.9,90,29.95,4.0,SSE,8.1,-,0.06,Rain,Light Rain,150,2013-08-01 12:54:00
8:59 AM,69.8,66.2,88,29.95,3.0,SSE,8.1,-,0.00,Rain,Light Rain,150,2013-08-01 12:59:00
9:03 AM,69.8,66.2,88,29.95,2.0,SSE,6.9,-,0.00,Rain,Rain,150,2013-08-01 13:03:00
9:16 AM,69.8,66.2,88,29.95,3.0,SSE,8.1,-,0.04,Rain,Light Rain,150,2013-08-01 13:16:00
9:26 AM,69.8,66.2,88,29.94,5.0,SSE,6.9,-,0.05,Rain,Light Rain,150,2013-08-01 13:26:00
9:50 AM,69.8,66.2,88,29.94,7.0,SSE,8.1,-,0.05,Rain,Light Rain,160,2013-08-01 13:50:00
9:54 AM,70.0,66.0,87,29.94,7.0,SSE,9.2,-,0.05,Rain,Light Rain,150,2013-08-01 13:54:00
10:00 AM,69.8,66.2,88,29.94,6.0,SE,9.2,-,0.00,Rain,Light Rain,140,2013-08-01 14:00:00
10:14 AM,69.8,64.4,83,29.93,7.0,SE,10.4,-,0.00,Rain,Light Rain,130,2013-08-01 14:14:00
10:48 AM,69.8,64.4,83,29.93,5.0,SE,9.2,-,0.00,Rain,Light Rain,140,2013-08-01 14:48:00
10:50 AM,69.8,64.4,83,29.93,2.0,SE,8.1,-,0.00,Rain,Light Rain,140,2013-08-01 14:50:00
10:51 AM,69.8,64.4,83,29.94,0.8,SSE,9.2,-,0.00,Rain,Heavy Rain,150,2013-08-01 14:51:00
10:54 AM,69.1,64.0,84,29.93,1.5,SSE,9.2,-,0.00,Rain,Heavy Rain,150,2013-08-01 14:54:00
11:03 AM,69.8,64.4,83,29.92,2.5,SE,8.1,-,0.12,Rain,Heavy Rain,140,2013-08-01 15:03:00
11:06 AM,69.8,64.4,83,29.92,4.0,SE,9.2,-,0.12,Rain,Rain,140,2013-08-01 15:06:00
11:16 AM,69.8,64.4,83,29.91,5.0,SE,10.4,-,0.14,Rain,Light Rain,140,2013-08-01 15:16:00
11:43 AM,69.8,64.4,83,29.91,7.0,Calm,Calm,-,0.14,Rain,Light Rain,0,2013-08-01 15:43:00
11:50 AM,69.8,64.4,83,29.91,6.0,Variable,3.5,-,0.14,Rain,Light Rain,0,2013-08-01 15:50:00
11:54 AM,70.0,64.0,81,29.91,6.0,Calm,Calm,-,0.14,Rain,Light Rain,0,2013-08-01 15:54:00
11:58 AM,69.8,64.4,83,29.91,4.0,Calm,Calm,-,0.00,Rain,Rain,0,2013-08-01 15:58:00
12:04 PM,69.8,64.4,83,29.91,1.5,Calm,Calm,-,0.02,Rain,Rain,0,2013-08-01 16:04:00
12:21 PM,69.8,66.2,88,29.91,1.8,Variable,3.5,-,0.14,Rain,Heavy Rain,0,2013-08-01 16:21:00
12:25 PM,69.8,66.2,88,29.91,2.5,ENE,3.5,-,0.18,Rain,Heavy Rain,60,2013-08-01 16:25:00
12:33 PM,69.8,66.2,88,29.91,2.5,Calm,Calm,-,0.21,Rain,Heavy Rain,0,2013-08-01 16:33:00
12:43 PM,69.8,66.2,88,29.91,2.5,East,3.5,-,0.26,Rain-Thunderstorm,Thunderstorms and Rain,90,2013-08-01 16:43:00
12:47 PM,69.8,66.2,88,29.91,3.0,East,4.6,-,0.26,Rain-Thunderstorm,Light Thunderstorms and Rain,80,2013-08-01 16:47:00
12:51 PM,69.8,66.2,88,29.90,2.5,East,5.8,-,0.26,Thunderstorm,Overcast,80,2013-08-01 16:51:00
12:52 PM,69.8,66.2,88,29.90,2.5,East,5.8,-,0.26,Rain-Thunderstorm,Thunderstorms and Rain,90,2013-08-01 16:52:00
12:54 PM,70.0,66.9,90,29.90,2.5,East,4.6,-,0.28,Rain-Thunderstorm,Thunderstorms and Rain,80,2013-08-01 16:54:00
12:57 PM,69.8,66.2,88,29.90,1.2,East,4.6,-,0.03,Rain-Thunderstorm,Heavy Thunderstorms and Rain,90,2013-08-01 16:57:00
1:02 PM,69.8,66.2,88,29.89,1.0,SE,6.9,-,0.09,Rain-Thunderstorm,Heavy Thunderstorms and Rain,140,2013-08-01 17:02:00
1:06 PM,69.8,66.2,88,29.89,2.5,SE,8.1,-,0.19,Rain-Thunderstorm,Thunderstorms and Rain,130,2013-08-01 17:06:00
1:09 PM,69.8,66.2,88,29.89,3.0,ESE,13.8,17.3,0.20,Rain-Thunderstorm,Thunderstorms and Rain,110,2013-08-01 17:09:00
1:17 PM,69.8,66.2,88,29.89,2.0,SE,11.5,-,0.22,Rain-Thunderstorm,Thunderstorms and Rain,140,2013-08-01 17:17:00
1:29 PM,69.8,66.2,88,29.88,3.0,SE,15.0,-,0.27,Rain-Thunderstorm,Thunderstorms and Rain,130,2013-08-01 17:29:00
1:37 PM,71.6,66.2,83,29.87,4.0,SE,13.8,20.7,0.28,Rain-Thunderstorm,Light Thunderstorms and Rain,140,2013-08-01 17:37:00
1:50 PM,71.6,66.2,83,29.87,4.0,SSE,11.5,-,0.30,Rain,Light Rain,150,2013-08-01 17:50:00
1:54 PM,71.1,66.9,87,29.87,4.0,SE,13.8,-,0.30,Rain,Light Rain,140,2013-08-01 17:54:00
2:01 PM,71.6,66.2,83,29.87,2.0,SSE,10.4,-,0.03,Rain,Rain,150,2013-08-01 18:01:00
2:06 PM,71.6,68.0,88,29.87,1.0,SSE,10.4,-,0.04,Rain,Rain,160,2013-08-01 18:06:00
2:23 PM,71.6,68.0,88,29.87,0.8,South,6.9,-,0.09,Rain,Heavy Rain,170,2013-08-01 18:23:00
2:31 PM,71.6,68.0,88,29.87,1.8,South,10.4,-,0.20,Rain,Heavy Rain,180,2013-08-01 18:31:00
2:44 PM,71.6,66.2,83,29.87,1.8,SSW,10.4,-,0.28,Rain-Thunderstorm,Thunderstorms and Rain,200,2013-08-01 18:44:00
2:48 PM,71.6,66.2,83,29.87,2.0,SSW,9.2,-,0.28,Rain-Thunderstorm,Thunderstorms and Rain,210,2013-08-01 18:48:00
2:54 PM,71.1,66.9,87,29.86,2.0,South,10.4,-,0.30,Rain-Thunderstorm,Heavy Thunderstorms and Rain,190,2013-08-01 18:54:00
3:08 PM,71.6,66.2,83,29.86,2.5,South,9.2,-,0.04,Rain,Light Rain,190,2013-08-01 19:08:00
3:26 PM,71.6,66.2,83,29.86,3.0,South,8.1,-,0.05,Rain,Light Rain,190,2013-08-01 19:26:00
3:34 PM,71.6,66.2,83,29.86,6.0,South,5.8,-,0.05,Rain,Light Rain,180,2013-08-01 19:34:00
3:54 PM,71.1,68.0,90,29.86,6.0,South,5.8,-,0.05,,Overcast,180,2013-08-01 19:54:00
4:10 PM,71.6,69.8,94,29.86,5.0,South,8.1,-,N/A,,Overcast,190,2013-08-01 20:10:00
4:27 PM,73.4,69.8,88,29.86,6.0,South,8.1,-,0.00,Rain,Light Rain,190,2013-08-01 20:27:00
4:35 PM,73.4,69.8,88,29.86,6.0,SSW,6.9,-,0.00,Rain,Light Rain,200,2013-08-01 20:35:00
4:54 PM,73.0,70.0,90,29.86,6.0,South,6.9,-,0.00,,Overcast,190,2013-08-01 20:54:00
5:20 PM,73.4,69.8,88,29.84,7.0,South,4.6,-,N/A,,Overcast,190,2013-08-01 21:20:00
5:50 PM,73.4,69.8,88,29.84,7.0,Calm,Calm,-,N/A,,Overcast,0,2013-08-01 21:50:00
5:54 PM,73.9,70.0,87,29.84,7.0,South,6.9,-,N/A,,Overcast,190,2013-08-01 21:54:00
6:23 PM,73.4,69.8,88,29.85,7.0,South,11.5,-,N/A,,Overcast,190,2013-08-01 22:23:00
6:47 PM,73.4,68.0,83,29.86,7.0,South,10.4,-,N/A,,Overcast,180,2013-08-01 22:47:00
6:54 PM,73.0,68.0,84,29.86,7.0,South,9.2,-,N/A,,Overcast,180,2013-08-01 22:54:00
7:11 PM,73.4,68.0,83,29.86,10.0,South,9.2,-,N/A,,Overcast,170,2013-08-01 23:11:00
7:54 PM,73.0,68.0,84,29.86,10.0,South,3.5,-,N/A,,Mostly Cloudy,180,2013-08-01 23:54:00
8:54 PM,73.0,68.0,84,29.86,10.0,SSE,4.6,-,N/A,,Mostly Cloudy,160,2013-08-02 00:54:00
9:09 PM,71.6,68.0,88,29.86,10.0,Calm,Calm,-,N/A,,Overcast,0,2013-08-02 01:09:00
9:22 PM,71.6,68.0,88,29.85,10.0,Calm,Calm,-,N/A,,Mostly Cloudy,0,2013-08-02 01:22:00
9:54 PM,72.0,68.0,87,29.85,10.0,West,5.8,-,N/A,,Mostly Cloudy,260,2013-08-02 01:54:00
10:06 PM,71.6,68.0,88,29.85,10.0,West,6.9,-,N/A,,Overcast,260,2013-08-02 02:06:00
10:54 PM,72.0,68.0,87,29.85,10.0,WSW,6.9,-,N/A,,Overcast,240,2013-08-02 02:54:00
11:54 PM,72.0,68.0,87,29.85,10.0,Calm,Calm,-,N/A,,Overcast,0,2013-08-02 03:54:00